weather.gov     
National Weather Service

Terminal Aerodrome Forecast
NWS Homepage
This page is being discontinued on March 12, 2014.
The same data is available at this site. Please update your bookmarks.
Thank you, and we apologize for the inconvenience.
Please send an email to SR-SRH.Webmaster@noaa.gov with any concerns.


Current Version
Previous Version:    01  02  03  04  05  06  07  08  09  10  11  12  13  14  
[Printable]
859
FTUS41 KGYX 280527
TAFAUG
TAF
KAUG 280527Z 2806/2906 35020G30KT 3SM -SN BLSN BR SCT025 OVC035
      TEMPO 2806/2808 1 1/2SM -SN BLSN OVC025
     FM280800 34015G25KT 5SM -SHSN BKN025 OVC040
     FM281500 33012G22KT P6SM -SHSN BKN025 OVC040
     FM281800 33014G20KT P6SM BKN040 BKN080=


859
FTUS41 KGYX 280527
TAFAUG
TAF
KAUG 280527Z 2806/2906 35020G30KT 3SM -SN BLSN BR SCT025 OVC035
      TEMPO 2806/2808 1 1/2SM -SN BLSN OVC025
     FM280800 34015G25KT 5SM -SHSN BKN025 OVC040
     FM281500 33012G22KT P6SM -SHSN BKN025 OVC040
     FM281800 33014G20KT P6SM BKN040 BKN080=




U.S. Dept. of Commerce
NOAA National Weather Service
1325 East West Highway
Silver Spring, MD 20910
E-mail: w-nws.webmaster@noaa.gov
Page last modified: May 16, 2007
NATIONAL WEATHER SERVICE: for Safety, for Work, for Fun - FOR LIFE